Location: Strohbehn Observatory
(42.4649°N, 93.8239°W)
Time: 06:05:33
(UTC-05:00)

SL-16 R/B - Visible Passes

Search period start: 25 May 2018 00:00
Search period end: 04 June 2018 00:00
Orbit: 843 x 846 km, 71.0° (Epoch: 24 May)

Date Brightness Start Highest point End Pass type
(mag) Time Alt. Az. Time Alt. Az. Time Alt. Az.
25 May 2.3 21:24:19 10° NNW 21:30:00 72° ENE 21:35:39 10° SSE visible
25 May 4.5 23:10:04 10° WNW 23:13:24 16° W 23:16:44 10° SW visible
26 May 2.3 21:10:02 10° NNW 21:15:43 70° ENE 21:21:21 10° SSE visible
26 May 4.4 22:55:41 10° WNW 22:59:09 17° W 23:02:38 10° SW visible
27 May 4.4 22:41:18 10° WNW 22:44:55 17° W 22:48:30 10° SW visible
28 May 4.4 22:26:55 10° WNW 22:30:39 18° W 22:34:23 10° SW visible
29 May 4.4 22:12:33 10° WNW 22:16:24 19° W 22:20:15 10° SW visible
30 May 4.4 21:58:11 10° NW 22:02:09 20° W 22:06:07 10° SW visible
31 May 4.5 21:43:50 10° NW 21:47:54 21° W 21:51:58 10° SSW visible
01 Jun 4.5 21:29:29 10° NW 21:33:39 21° W 21:37:48 10° SSW visible
02 Jun 4.5 21:15:08 10° NW 21:19:23 22° W 21:23:38 10° SSW visible
